When you browse on this site, cookies collect data to enhance your experience and personalize the content and advertising you see.
Visit our Privacy Policy to learn more. By continuing to use the site, you agree to this use of cookies and data.
  • In Hungary
  • List of Countries
  • For 7 days
  • Water Temperature
  • Weather Map
  • News
  • Weather Widgets
  • user-avatar
    Login

    Hourly Weather Iosser

    Today, 18 September, Wednesday

    Time Temperature Precipitation Wind Pressure Humidity
    00:00 +5°C° 0 mm 0 mps 729 mmHg 95%
    01:00 +5°C° 0 mm 0 mps 729 mmHg 95%
    02:00 +4°C° 0 mm 0 mps 729 mmHg 95%
    03:00 +4°C° 0 mm 0 mps 730 mmHg 95%
    04:00 +4°C° 0.1 mm 0 mps 730 mmHg 95%
    05:00 +4°C° 0.1 mm 0 mps 730 mmHg 95%
    06:00 +6°C° 0.1 mm 1 mps 730 mmHg 95%
    07:00 +7°C° 0.1 mm 1 mps 730 mmHg 91%
    08:00 +8°C° 0.1 mm 1 mps 730 mmHg 86%
    09:00 +10°C° 0.1 mm 1 mps 731 mmHg 82%
    10:00 +10°C° 0.2 mm 1 mps 731 mmHg 79%
    11:00 +11°C° 0.2 mm 1 mps 731 mmHg 76%
    12:00 +12°C° 0.2 mm 1 mps 732 mmHg 73%
    13:00 +10°C° 0.4 mm 2 mps 732 mmHg 76%
    14:00 +10°C° 0.4 mm 2 mps 732 mmHg 78%
    15:00 +9°C° 0.4 mm 2 mps 733 mmHg 81%
    16:00 +8°C° 0.1 mm 2 mps 733 mmHg 84%
    17:00 +7°C° 0.1 mm 2 mps 734 mmHg 87%
    18:00 +6°C° 0.1 mm 2 mps 734 mmHg 90%
    19:00 +6°C° 0 mm 2 mps 734 mmHg 91%
    20:00 +5°C° 0 mm 2 mps 734 mmHg 92%
    21:00 +5°C° 0 mm 2 mps 735 mmHg 93%
    22:00 +4°C° 0 mm 2 mps 735 mmHg 93%
    23:00 +4°C° 0 mm 1 mps 735 mmHg 93%

    Tomorrow, 19 September, Thursday

    Time Temperature Precipitation Wind Pressure Humidity
    00:00 +4°C° 0 mm 1 mps 735 mmHg 94%
    01:00 +3°C° 0 mm 1 mps 735 mmHg 93%
    02:00 +3°C° 0 mm 1 mps 736 mmHg 92%
    03:00 +3°C° 0 mm 1 mps 736 mmHg 91%
    04:00 +2°C° 0 mm 2 mps 736 mmHg 91%
    05:00 +1°C° 0 mm 2 mps 736 mmHg 91%
    06:00 +1°C° 0 mm 2 mps 736 mmHg 91%
    07:00 +2°C° 0 mm 2 mps 736 mmHg 85%
    08:00 +4°C° 0 mm 2 mps 736 mmHg 79%
    09:00 +5°C° 0 mm 2 mps 736 mmHg 73%
    10:00 +6°C° 0 mm 2 mps 736 mmHg 67%
    11:00 +7°C° 0 mm 3 mps 736 mmHg 61%
    12:00 +8°C° 0 mm 3 mps 736 mmHg 54%
    13:00 +8°C° 0 mm 3 mps 736 mmHg 54%
    14:00 +8°C° 0 mm 3 mps 736 mmHg 54%
    15:00 +8°C° 0 mm 3 mps 737 mmHg 54%
    16:00 +5°C° 0 mm 3 mps 737 mmHg 61%
    17:00 +5°C° 0 mm 2 mps 737 mmHg 68%
    18:00 +4°C° 0 mm 2 mps 737 mmHg 75%
    19:00 +3°C° 0 mm 2 mps 737 mmHg 78%
    20:00 +3°C° 0 mm 2 mps 737 mmHg 82%
    21:00 +3°C° 0 mm 2 mps 738 mmHg 85%
    22:00 +2°C° 0 mm 2 mps 738 mmHg 87%
    23:00 +2°C° 0 mm 2 mps 738 mmHg 89%

    Day after tomorrow, 20 September, Friday

    Time Temperature Precipitation Wind Pressure Humidity
    00:00 +1°C° 0 mm 2 mps 738 mmHg 91%
    01:00 +1°C° 0 mm 2 mps 739 mmHg 93%
    02:00 -1°C° 0 mm 2 mps 739 mmHg 94%
    03:00 -1°C° 0 mm 2 mps 740 mmHg 96%
    04:00 -1°C° 0 mm 2 mps 740 mmHg 96%
    05:00 -1°C° 0 mm 2 mps 740 mmHg 96%
    06:00 -1°C° 0 mm 2 mps 740 mmHg 96%
    07:00 0°C° 0 mm 3 mps 740 mmHg 88%
    08:00 +1°C° 0 mm 3 mps 741 mmHg 81%
    09:00 +2°C° 0 mm 3 mps 741 mmHg 73%
    10:00 +3°C° 0 mm 3 mps 741 mmHg 68%
    11:00 +4°C° 0 mm 3 mps 741 mmHg 63%
    12:00 +4°C° 0 mm 3 mps 741 mmHg 58%
    13:00 +4°C° 0.1 mm 3 mps 741 mmHg 57%
    14:00 +5°C° 0.1 mm 3 mps 741 mmHg 57%
    15:00 +5°C° 0.1 mm 3 mps 742 mmHg 56%
    16:00 +3°C° 0 mm 3 mps 742 mmHg 64%
    17:00 +3°C° 0 mm 2 mps 742 mmHg 72%
    18:00 +2°C° 0 mm 2 mps 742 mmHg 79%
    19:00 +1°C° 0 mm 2 mps 742 mmHg 82%
    20:00 +1°C° 0 mm 2 mps 742 mmHg 85%
    21:00 +1°C° 0 mm 2 mps 742 mmHg 87%
    22:00 -1°C° 0 mm 2 mps 742 mmHg 88%
    23:00 -1°C° 0 mm 2 mps 742 mmHg 89%

    21 September, Saturday

    Time Temperature Precipitation Wind Pressure Humidity
    00:00 -1°C° 0 mm 2 mps 742 mmHg 91%
    01:00 -2°C° 0 mm 3 mps 742 mmHg 90%
    02:00 -2°C° 0 mm 3 mps 742 mmHg 90%
    03:00 -2°C° 0 mm 3 mps 742 mmHg 90%
    04:00 -2°C° 0 mm 3 mps 741 mmHg 89%
    05:00 -2°C° 0 mm 3 mps 741 mmHg 88%
    06:00 -2°C° 0 mm 3 mps 741 mmHg 87%
    07:00 -1°C° 0 mm 3 mps 741 mmHg 83%
    08:00 -1°C° 0 mm 4 mps 741 mmHg 79%
    09:00 0°C° 0 mm 4 mps 741 mmHg 75%
    10:00 +1°C° 0.1 mm 4 mps 741 mmHg 78%
    11:00 +1°C° 0.1 mm 4 mps 741 mmHg 82%
    12:00 +1°C° 0.1 mm 4 mps 741 mmHg 85%
    13:00 +1°C° 0.1 mm 4 mps 741 mmHg 87%
    14:00 +1°C° 0.1 mm 4 mps 741 mmHg 88%
    15:00 +1°C° 0.1 mm 4 mps 741 mmHg 89%
    16:00 +2°C° 0.1 mm 3 mps 740 mmHg 91%
    17:00 +1°C° 0.1 mm 3 mps 740 mmHg 92%
    18:00 +2°C° 0.1 mm 2 mps 740 mmHg 93%
    19:00 +2°C° 0 mm 2 mps 740 mmHg 94%
    20:00 +2°C° 0 mm 2 mps 740 mmHg 94%
    21:00 +1°C° 0 mm 2 mps 740 mmHg 94%
    22:00 +1°C° 0 mm 2 mps 740 mmHg 95%
    23:00 +2°C° 0 mm 1 mps 739 mmHg 96%

    22 September, Sunday

    Time Temperature Precipitation Wind Pressure Humidity
    00:00 +1°C° 0 mm 1 mps 739 mmHg 97%
    01:00 +1°C° 0 mm 1 mps 739 mmHg 97%
    02:00 +1°C° 0 mm 1 mps 739 mmHg 97%
    03:00 +1°C° 0 mm 1 mps 739 mmHg 97%
    04:00 +1°C° 0.1 mm 1 mps 738 mmHg 97%
    05:00 +1°C° 0.1 mm 1 mps 738 mmHg 97%
    06:00 0°C° 0.1 mm 0 mps 738 mmHg 96%
    07:00 +1°C° 0 mm 0 mps 738 mmHg 93%
    08:00 +2°C° 0 mm 0 mps 738 mmHg 89%
    09:00 +3°C° 0 mm 0 mps 738 mmHg 85%
    10:00 +3°C° 0.1 mm 0 mps 738 mmHg 83%
    11:00 +4°C° 0.1 mm 1 mps 738 mmHg 80%
    12:00 +5°C° 0.1 mm 1 mps 738 mmHg 78%
    13:00 +5°C° 0.1 mm 1 mps 738 mmHg 75%
    14:00 +5°C° 0.1 mm 1 mps 738 mmHg 73%
    15:00 +5°C° 0.1 mm 1 mps 738 mmHg 70%
    16:00 +4°C° 0 mm 1 mps 738 mmHg 77%
    17:00 +2°C° 0 mm 1 mps 738 mmHg 84%
    18:00 +1°C° 0 mm 1 mps 738 mmHg 91%
    19:00 +1°C° 0 mm 1 mps 737 mmHg 93%
    20:00 0°C° 0 mm 1 mps 737 mmHg 94%
    21:00 0°C° 0 mm 1 mps 737 mmHg 95%
    22:00 0°C° 0 mm 1 mps 737 mmHg 96%
    23:00 -1°C° 0 mm 1 mps 737 mmHg 96%

    23 September, Monday

    Time Temperature Precipitation Wind Pressure Humidity
    00:00 -1°C° 0 mm 1 mps 737 mmHg 96%
    01:00 -1°C° 0 mm 1 mps 737 mmHg 97%
    02:00 -1°C° 0 mm 1 mps 736 mmHg 97%
    03:00 -2°C° 0 mm 2 mps 736 mmHg 97%
    04:00 -2°C° 0.2 mm 2 mps 736 mmHg 97%
    05:00 -1°C° 0.2 mm 2 mps 736 mmHg 96%
    06:00 +1°C° 0.2 mm 2 mps 736 mmHg 96%
    07:00 0°C° 0.2 mm 3 mps 735 mmHg 96%
    08:00 0°C° 0.2 mm 3 mps 735 mmHg 96%
    09:00 0°C° 0.2 mm 3 mps 735 mmHg 96%
    10:00 0°C° 0.1 mm 3 mps 735 mmHg 95%
    11:00 +1°C° 0.1 mm 3 mps 735 mmHg 94%
    12:00 +1°C° 0.1 mm 3 mps 735 mmHg 93%
    13:00 +1°C° 0.2 mm 3 mps 735 mmHg 92%
    14:00 +1°C° 0.2 mm 3 mps 735 mmHg 91%
    15:00 +1°C° 0.2 mm 3 mps 735 mmHg 91%
    16:00 +1°C° 0.2 mm 3 mps 735 mmHg 93%
    17:00 +1°C° 0.2 mm 3 mps 735 mmHg 95%
    18:00 0°C° 0.2 mm 3 mps 735 mmHg 97%
    19:00 +1°C° 0.2 mm 2 mps 735 mmHg 97%
    20:00 +1°C° 0.2 mm 2 mps 735 mmHg 97%
    21:00 +1°C° 0.2 mm 2 mps 735 mmHg 97%
    22:00 +1°C° 0.1 mm 2 mps 735 mmHg 97%
    23:00 +1°C° 0.1 mm 2 mps 735 mmHg 97%
    Show more